EW8522 Weather Reports


time (UTC)temp
C
wind
direction
speed
KPH
gust
KPH
rain 1hr
cm
rain 24hr
cm
rain mn
cm
humidity
%
barometer
mb
20260504201536 20 346 0.0 0.0 0.00 0.00 0.00 40 1002.3
20260504200032 19 346 0.0 0.0 0.00 0.00 0.00 52 1002.6
20260504194527 18 346 0.0 0.0 0.00 0.00 0.00 48 1002.8
20260504191524 17 346 0.0 0.0 0.00 0.00 0.00 53 1003.2
20260504190020 17 346 0.0 0.0 0.00 0.00 0.00 55 1003.4
20260504184532 16 346 0.0 0.0 0.00 0.00 0.00 59 1003.6
20260504181517 16 346 0.0 0.0 0.00 0.00 0.00 55 1004.0
20260504180011 16 346 0.0 0.0 0.00 0.00 0.00 69 1004.2
20260504174507 15 346 0.0 0.0 0.00 0.00 0.00 58 1004.3
20260504171501 13 346 0.0 0.0 0.00 0.00 0.00 77 1004.6
20260504081546 -17 0.0 0.0 0.00 0.00 0.00 1005.3
20260504044533 -17 0.0 0.0 0.00 0.00 0.00 1004.6
20260504043028 -17 0.0 0.0 0.00 0.00 0.00 1004.5
20260504041529 -17 0.0 0.0 0.00 0.00 0.00 1004.4
20260504040028 -17 0.0 0.0 0.00 0.00 0.00 1004.3
20260504034529 -17 0.0 0.0 0.00 0.00 0.00 1004.2
20260504033028 -17 0.0 0.0 0.00 0.00 0.00 1003.8
20260504031527 -17 0.0 0.0 0.00 0.00 0.00 1003.8
20260504030027 -17 0.0 0.0 0.00 0.00 0.00 1003.7
20260504024532 21 346 0.0 0.0 0.00 0.00 0.00 26 1003.5
20260504023025 22 346 0.0 0.0 0.00 0.00 0.00 42 1003.5
20260504021526 22 346 0.0 0.0 0.00 0.00 0.00 41 1003.6
20260504020024 22 346 0.0 0.0 0.00 0.00 0.00 41 1003.6
20260504014523 22 346 0.0 0.0 0.00 0.00 0.00 39 1003.6
20260504013123 22 346 0.0 0.0 0.00 0.00 0.00 39 1003.7
20260504011521 23 346 0.0 0.0 0.00 0.00 0.00 40 1003.7
20260504010020 23 346 0.0 0.0 0.00 0.00 0.00 36 1003.7
20260504004519 23 346 0.0 0.0 0.00 0.00 0.00 36 1003.8
20260504003035 23 346 0.0 0.0 0.00 0.00 0.00 35 1003.8
20260504001519 23 346 0.0 0.0 0.00 0.00 0.00 33 1003.9
20260504000018 23 346 0.0 0.0 0.00 0.00 0.00 34 1004.0
20260503234516 23 346 0.0 0.0 0.00 0.00 0.00 37 1004.0
20260503233014 24 346 0.0 0.0 0.00 0.00 0.00 39 1004.3
20260503231515 25 346 0.0 0.0 0.00 0.00 0.00 36 1004.5
20260503230013 25 346 0.0 0.0 0.00 0.00 0.00 38 1004.6
20260503224521 25 346 0.0 0.0 0.00 0.00 0.00 33 1004.9
20260503223009 25 346 0.0 0.0 0.00 0.00 0.00 27 1005.2
20260503221509 25 346 0.0 0.0 0.00 0.00 0.00 31 1005.5
20260503220016 25 346 0.0 0.0 0.00 0.00 0.00 31 1005.6
20260503214505 26 346 0.0 0.0 0.00 0.00 0.00 31 1006.0
20260503213003 27 346 0.0 0.0 0.00 0.00 0.00 31 1006.1
20260503211605 27 346 0.0 0.0 0.00 0.00 0.00 30 1006.3
20260503210057 26 346 0.0 0.0 0.00 0.00 0.00 28 1006.6
20260503204555 25 345 0.0 0.0 0.00 0.00 0.00 42 1006.9
20260503203050 22 345 0.0 0.0 0.00 0.00 0.00 38 1007.1